www.pogodaiklimat.ru

Погода и климат >> Архив погоды >> Норвегия >> Харстад


ПОГОДА в Харстаде

  • Прогноз погоды в Харстаде
  • Монитор погоды в Харстаде

АРХИВ ПОГОДЫ в Харстаде

Время (UTC), дата Ветер
(напр.,м/с)
 
Видим.   Явления Облачность Т
(С)
Тd
(С)
f
(%)
Тe
(С)
Тes
(С)
Комфортность P
(гПа)
Po
(гПа)
Тmin
(С)
Tmax
(С)
R
(мм)
R24
(мм)
S
(см)
13 18.06 СВ 2-3
{3}
н/о н/о +12.5 +7.8 73 +12 +12 1008.6 1003.1
14 18.06 В 1-3
{3}
н/о н/о +12.0 +7.7 75 +12 +12 1008.6 1003.1
15 18.06 ЮВ 2-3
{4}
н/о н/о +11.3 +7.2 76 +10 +10 1008.8 1003.3
16 18.06 Ю 1-2
{4}
н/о н/о +10.1 +7.5 84 +10 +10 1009.2 1003.6
17 18.06 Ю 1-2
{2}
н/о н/о +9.7 +7.8 88 +9 +9 1009.1 1003.5
18 18.06 штиль 0-1
{4}
н/о н/о +9.6 +7.9 89 +9 +9 1009.0 1003.4 +9.6 +12.9 4
19 18.06 Ю 1-2
{2}
н/о н/о +9.4 +7.9 90 +9 +9 1009.0 1003.4
20 18.06 штиль 0-1
{1}
н/о н/о +9.5 +8.1 91 +9 +9 1008.9 1003.3
21 18.06 штиль 0-1
{2}
н/о н/о +9.5 +8.1 91 +9 +9 1008.7 1003.1
22 18.06 ЮВ 1-2
{2}
н/о н/о +9.4 +8.2 92 +9 +9 1008.4 1002.8
23 18.06 штиль 0-1
{2}
н/о н/о +9.3 +8.1 92 +8 +8 1008.3 1002.7
00 19.06 штиль 0-1
{2}
н/о н/о +9.2 +8.0 92 +8 +8 1008.0 1002.4
01 19.06 штиль 0
{2}
н/о н/о +9.2 +8.0 92 +8 +8 1008.0 1002.4
02 19.06 штиль 0-1
{2}
н/о н/о +9.3 +8.1 92 +8 +8 1007.9 1002.3
03 19.06 Ю 1-2
{2}
н/о н/о +9.3 +8.1 92 +9 +9 1008.0 1002.4
04 19.06 Ю 1-2
{2}
н/о н/о +9.9 +8.8 93 +9 +9 1007.9 1002.3
05 19.06 ЮВ 1-2
{2}
н/о н/о +10.3 +9.1 92 +10 +10 1007.9 1002.3
06 19.06 Ю 1-2
{2}
н/о н/о +10.3 +8.7 90 +10 +10 1008.1 1002.5 +9.1 +10.4 0.4
07 19.06 ЮВ 1-3
{3}
н/о н/о +11.4 +9.5 88 +11 +11 1008.4 1002.8
08 19.06 ЮВ 2-3
{3}
н/о н/о +12.5 +9.7 83 +12 +12 1008.5 1003.0
09 19.06 ЮВ 2-3
{3}
н/о н/о +11.0 +8.6 85 +10 +10 1008.9 1003.4
10 19.06 В 1-2
{3}
н/о н/о +13.0 +10.4 84 +13 +13 1009.3 1003.8
11 19.06 СВ 2-2
{3}
н/о н/о +13.7 +11.1 84 +13 +13 1009.6 1004.1
12 19.06 В 1-3
{4}
н/о н/о +13.4 +8.9 74 +14 +14 1009.9 1004.4 2
13 19.06 СВ 2-4
{4}
н/о н/о +14.3 +9.7 74 +14 +14 1010.4 1004.8
14 19.06 СВ 2-4
{5}
н/о н/о +11.4 +8.6 83 +10 +10 1011.0 1005.4
15 19.06 СЗ 4-6
{6}
н/о н/о +10.1 +7.7 85 +7 +7 1011.2 1005.6
16 19.06 СЗ 2-4
{7}
н/о н/о +10.5 +8.3 86 +9 +9 1011.7 1006.1
17 19.06 СЗ 3-6
{6}
н/о н/о +10.5 +7.4 81 +8 +8 1011.9 1006.3
18 19.06 ЮВ 1-2
{7}
н/о н/о +10.8 +8.2 84 +10 +10 1012.2 1006.6 +9.5 +15.2 4
19 19.06 В 1-2
{3}
н/о н/о +10.4 +7.5 82 +10 +10 1012.4 1006.8
20 19.06 ЮВ 1-2
{3}
н/о н/о +9.9 +7.3 84 +9 +9 1012.7 1007.1
21 19.06 В 1-2
{2}
н/о н/о +9.7 +7.3 85 +9 +9 1012.9 1007.3
22 19.06 штиль 0-1
{2}
н/о н/о +9.5 +7.3 86 +9 +9 1012.9 1007.3
23 19.06 ЮВ 1-2
{2}
н/о н/о +9.6 +7.4 86 +9 +9 1013.0 1007.3
00 20.06 штиль 0-1
{3}
н/о н/о +9.5 +7.1 85 +9 +9 1013.0 1007.4
01 20.06 штиль 0-1
{1}
н/о н/о +9.6 +7.4 86 +9 +9 1013.1 1007.5
02 20.06 штиль 0-1
{1}
н/о н/о +9.7 +7.5 86 +9 +9 1013.1 1007.5
03 20.06 штиль 0-1
{1}
н/о н/о +9.9 +7.7 86 +9 +9 1013.1 1007.5
04 20.06 В 1-2
{2}
н/о н/о +10.4 +7.8 84 +10 +10 1012.7 1007.1
05 20.06 В 1-2
{2}
н/о н/о +11.1 +8.3 83 +11 +11 1012.6 1007.0
06 20.06 СВ 2-3
{3}
н/о н/о +12.2 +8.9 80 +11 +11 1012.3 1006.7 +9.5 +12.2
07 20.06 В 3-3
{3}
н/о н/о +13.4 +8.9 74 +12 +12 1012.0 1006.5
08 20.06 СВ 3-4
{4}
н/о н/о +13.9 +8.5 70 +13 +13 1011.9 1006.4
09 20.06 В 3-4
{5}
н/о н/о +14.6 +8.6 67 +14 +14 1011.7 1006.2
10 20.06 В 2-5
{5}
н/о н/о +16.0 +9.9 67 +16 +16 1011.5 1006.0
11 20.06 СВ 2-4
{5}
н/о н/о +17.2 +10.1 63 +18 +18 1011.1 1005.6
12 20.06 СВ 3-5
{5}
н/о н/о +17.2 +8.6 57 +17 +17 1010.5 1005.1
13 20.06 СВ 3-5
{6}
н/о н/о +17.8 +8.7 55 +18 +18 1010.1 1004.6
14 20.06 СВ 3-6
{7}
н/о н/о +17.7 +7.7 52 +18 +18 1009.5 1004.1
15 20.06 СВ 3-5
{6}
н/о н/о +18.6 +7.4 48 +19 +19 1008.9 1003.5
16 20.06 СВ 3-4
{5}
н/о н/о +18.0 +6.9 48 +18 +18 1008.4 1003.0
17 20.06 -5
{6}
н/о н/о +16.3 +7.5 56 1007.7 1002.3
18 20.06 С 2-4
{7}
н/о н/о +15.8 +7.3 57 +16 +16 1007.4 1002.0 +12.1 +18.7
19 20.06 С 2-4
{6}
н/о н/о +15.0 +7.6 61 +15 +15 1007.1 1001.6
20 20.06 С 2-4
{6}
н/о н/о +14.5 +7.1 61 +14 +14 1006.8 1001.3
21 20.06 С 3-6
{6}
н/о н/о +14.0 +7.3 64 +13 +13 1006.4 1000.9
22 20.06 С 1-2
{6}
н/о н/о +13.4 +7.8 69 +14 +14 1006.1 1000.6
23 20.06 штиль 0-2
{2}
н/о н/о +12.8 +8.1 73 +12 +12 1005.5 1000.0
00 21.06 штиль 0
{6}
н/о н/о +11.4 +7.9 79 +11 +11 1005.2 999.6
01 21.06 СВ 1-3
{3}
н/о н/о +13.0 +8.3 73 +13 +13 1004.7 999.2
02 21.06 С 1-2
{2}
н/о н/о +13.3 +8.0 70 +14 +14 1004.4 998.9
03 21.06 штиль 0
{2}
н/о н/о +13.2 +8.1 71 +13 +13 1004.0 998.5
04 21.06 СВ 1-1
{2}
н/о н/о +14.3 +8.5 68 +15 +15 1003.6 998.1
05 21.06 В 2-3
{3}
н/о н/о +15.5 +8.0 61 +15 +15 1003.1 997.7
06 21.06 Ю 1-2
{3}
н/о н/о +15.9 +8.6 62 +17 +17 1002.7 997.3 +11.4 +17.0
07 21.06 ЮВ 2-4
{5}
н/о н/о +16.2 +7.9 58 +16 +16 1002.4 997.0
08 21.06 Ю 2-4
{6}
н/о н/о +15.5 +8.5 63 +15 +15 1002.6 997.2
09 21.06 штиль 0-2
{5}
н/о н/о +15.4 +9.8 69 +15 +15 1002.8 997.3
10 21.06 Ю 2-4
{4}
н/о н/о +15.2 +10.0 71 +15 +15 1003.1 997.6
11 21.06 Ю 2-3
{5}
н/о н/о +15.0 +9.6 70 +15 +15 1003.1 997.7
12 21.06 ЮВ 2-4
{6}
н/о н/о +15.2 +9.8 70 +15 +15 1003.4 997.9 0.4
13 21.06 ЮВ 2-3
{3}
н/о н/о +15.0 +10.2 73 +15 +15 1003.5 998.0
14 21.06 Ю 1-3
{4}
н/о н/о +14.8 +11.4 80 +15 +15 1003.7 998.2
15 21.06 ЮВ 2-3
{3}
н/о н/о +14.5 +11.1 80 +14 +14 1003.5 998.1
16 21.06 Ю 2-5
{5}
н/о н/о +14.3 +10.9 80 +14 +14 1003.8 998.3
17 21.06 Ю 1-3
{6}
н/о н/о +13.8 +10.8 82 +14 +14 1003.8 998.3
18 21.06 ЮЗ 1-2
{6}
н/о н/о +13.7 +10.9 83 +14 +14 1003.8 998.3 +13.6 +16.9 0.6
19 21.06 ЮЗ 2-3
{3}
н/о н/о +13.4 +10.0 80 +13 +13 1003.8 998.3
20 21.06 Ю 2-3
{3}
н/о н/о +13.2 +9.3 77 +13 +13 1004.1 998.6
21 21.06 ЮЗ 2-4
{4}
н/о н/о +13.0 +9.1 77 +12 +12 1004.3 998.8
22 21.06 ЮЗ 2-4
{6}
н/о н/о +12.5 +8.6 77 +12 +12 1004.7 999.1
23 21.06 ЮЗ 1-2
{5}
н/о н/о +11.5 +8.5 82 +11 +11 1005.0 999.5
00 22.06 штиль 0-1
{6}
н/о н/о +11.2 +9.0 86 +11 +11 1005.3 999.7 0.6
01 22.06 ЮЗ 1-1
{2}
н/о н/о +11.0 +9.3 89 +11 +11 1005.5 999.9
02 22.06 штиль 0-1
{3}
н/о н/о +10.8 +9.2 90 +10 +10 1005.7 1000.2
03 22.06 штиль 0-2
{2}
н/о н/о +10.9 +9.5 91 +10 +10 1005.8 1000.3
04 22.06 ЮЗ 1-2
{2}
н/о н/о +11.0 +9.6 91 +11 +11 1005.8 1000.2
05 22.06 В 1-2
{2}
н/о н/о +11.9 +10.5 91 +12 +12 1005.7 1000.2
06 22.06 штиль 0-1
{3}
н/о н/о +11.4 +9.5 88 +11 +11 1005.7 1000.2 +10.8 +13.8 2
07 22.06 В 1-2
{2}
н/о н/о +12.0 +9.6 85 +12 +12 1005.9 1000.4
08 22.06 штиль 0-1
{2}
н/о н/о +11.5 +9.3 86 +11 +11 1006.3 1000.7
09 22.06 ЮЗ 1-3
{3}
н/о н/о +11.6 +9.2 85 +11 +11 1006.5 1000.9
10 22.06 штиль 0-1
{3}
н/о н/о +11.3 +8.4 82 +11 +11 1006.9 1001.4
11 22.06 штиль 0-1
{2}
н/о н/о +11.6 +9.2 85 +11 +11 1007.2 1001.6
12 22.06 штиль 0-1
{4}
н/о н/о +11.0 +8.8 86 +10 +10 1007.6 1002.0 3
13 22.06 СВ 1-2
{2}
н/о н/о +10.9 +8.7 86 +11 +11 1007.9 1002.4
14 22.06 ЮВ 1-3
{3}
н/о н/о +9.9 +8.0 88 +9 +9 1008.5 1002.9
15 22.06 В 1-2
{3}
н/о н/о +9.8 +8.2 90 +9 +9 1008.7 1003.1
16 22.06 Ю 1-2
{3}
н/о н/о +9.4 +8.0 91 +9 +9 1009.0 1003.4
17 22.06 З 1-2
{2}
н/о н/о +9.4 +8.0 91 +9 +9 1009.3 1003.7
18 22.06 Ю 1-2
{3}
н/о н/о +9.6 +8.4 92 +9 +9 1009.5 1003.9 +9.2 +12.3 13
19 22.06 штиль 0-1
{2}
н/о н/о +9.6 +8.4 92 +9 +9 1009.6 1004.0
20 22.06 штиль 0-1
{1}
н/о н/о +9.6 +8.4 92 +9 +9 1009.7 1004.1
21 22.06 штиль 0
{2}
н/о н/о +9.3 +8.1 92 +8 +8 1010.0 1004.4
22 22.06 штиль 0
{2}
н/о н/о +9.3 +8.1 92 +8 +8 1010.2 1004.6
23 22.06 СЗ 1-2
{2}
н/о н/о +9.2 +8.0 92 +8 +8 1010.5 1004.9
00 23.06 З 1-2
{3}
н/о н/о +9.2 +8.1 93 +8 +8 1010.9 1005.2 0.8
01 23.06 штиль 0
{2}
н/о н/о +9.0 +7.9 93 +8 +8 1011.3 1005.6
02 23.06 З 1-3
{3}
н/о н/о +9.0 +7.9 93 +8 +8 1011.5 1005.9
03 23.06 З 1-3
{3}
н/о н/о +9.1 +8.0 93 +8 +8 1012.1 1006.5
04 23.06 З 1-2
{3}
н/о н/о +9.7 +8.3 91 +9 +9 1012.4 1006.8
05 23.06 Ю 1-2
{2}
н/о н/о +10.3 +8.7 90 +10 +10 1012.8 1007.2
06 23.06 Ю 1-3
{3}
н/о н/о +10.6 +8.4 86 +10 +10 1013.2 1007.6 +8.8 +10.8 0.9
07 23.06 СВ 2-3
{3}
н/о н/о +11.1 +8.3 83 +10 +10 1013.8 1008.2
08 23.06 СЗ 2-3
{3}
н/о н/о +10.4 +7.6 83 +9 +9 1014.4 1008.8
09 23.06 В 1-2
{4}
н/о н/о +11.2 +8.6 84 +11 +11 1014.9 1009.3
10 23.06 СВ 1-2
{3}
н/о н/о +12.5 +9.7 83 +13 +13 1015.3 1009.8
11 23.06 В 1-3
{3}
н/о н/о +12.7 +8.6 76 +13 +13 1015.7 1010.1
12 23.06 Ю 2-5
{6}
н/о н/о +13.7 +7.5 66 +13 +13 1016.0 1010.5
13 23.06 Ю 2-6
{7}
н/о н/о +12.5 +7.0 69 +12 +12 1016.7 1011.1
14 23.06 Ю 4-6
{6}
н/о н/о +13.2 +7.2 67 +12 +12 1017.1 1011.6
15 23.06 ЮЗ 3-7
{7}
н/о н/о +13.5 +7.7 68 +12 +12 1017.6 1012.0
16 23.06 ЮВ 3-6
{6}
н/о н/о +13.2 +7.9 70 +12 +12 1017.9 1012.4
17 23.06 ЮЗ 3-6
{6}
н/о н/о +12.1 +7.0 71 +11 +11 1018.2 1012.6
18 23.06 Ю 2-4
{7}
н/о н/о +11.9 +7.0 72 +11 +11 1018.5 1012.9 +10.3 +14.0
19 23.06 Ю 1-3
{6}
н/о н/о +12.0 +6.5 69 +12 +12 1019.0 1013.4
20 23.06 Ю 1-3
{4}
н/о н/о +11.3 +6.5 72 +11 +11 1019.4 1013.8
21 23.06 штиль 0-2
{3}
н/о н/о +11.2 +6.4 72 +11 +11 1020.0 1014.3
22 23.06 ЮЗ 1-3
{3}
н/о н/о +10.6 +6.0 73 +10 +10 1020.7 1015.0
23 23.06 ЮЗ 1-4
{4}
н/о н/о +10.5 +5.9 73 +10 +10 1021.1 1015.5
00 24.06 ЮЗ 2-3
{6}
н/о н/о +10.3 +5.3 71 +9 +9 1021.5 1015.8
01 24.06 З 1-3
{3}
н/о н/о +10.0 +5.4 73 +10 +10 1021.7 1016.0
02 24.06 Ю 1-3
{4}
н/о н/о +9.8 +6.0 77 +9 +9 1022.1 1016.4
03 24.06 ЮЗ 1-3
{3}
н/о н/о +9.9 +6.8 81 +9 +9 1022.2 1016.5
04 24.06 ЮВ 1-3
{5}
н/о н/о +9.5 +7.3 86 +9 +9 1022.3 1016.6
05 24.06 ЮВ 2-4
{6}
н/о н/о +10.1 +7.7 85 +9 +9 1022.5 1016.8
06 24.06 штиль 0-1
{6}
н/о н/о +10.3 +7.5 83 +10 +10 1022.9 1017.2 +9.3 +12.3 0.3
07 24.06 З 1-2
{3}
н/о н/о +10.4 +8.0 85 +10 +10 1023.4 1017.7
08 24.06 ЮЗ 2-4
{5}
н/о н/о +9.8 +6.9 82 +8 +8 1024.0 1018.3
09 24.06 ЮЗ 3-5
{6}
н/о н/о +10.9 +6.7 75 +9 +9 1024.4 1018.8
10 24.06 ЮЗ 3-6
{7}
н/о н/о +11.0 +5.3 68 +9 +9 1024.8 1019.2
11 24.06 ЮЗ 4-8
{8}
н/о н/о +12.5 +5.0 60 +11 +11 1024.7 1019.1
12 24.06 ЮЗ 2-5
{8}
н/о н/о +12.1 +7.6 74 +11 +11 1025.3 1019.7 1
13 24.06 ЮЗ 1-4
{7}
н/о н/о +10.4 +7.3 81 +10 +10 1025.9 1020.2
14 24.06 ЮЗ 2-5
{6}
н/о н/о +11.6 +6.5 71 +11 +11 1025.9 1020.2
15 24.06 ЮЗ 2-4
{5}
н/о н/о +11.8 +5.0 63 +11 +11 1025.8 1020.2
16 24.06 ЮЗ 2-3
{6}
н/о н/о +10.0 +6.0 76 +9 +9 1026.1 1020.5
17 24.06 ЮЗ 1-2
{4}
н/о н/о +10.2 +6.7 79 +10 +10 1026.2 1020.6
18 24.06 ЮЗ 2-3
{7}
н/о н/о +9.9 +5.5 74 +8 +8 1026.4 1020.7 +9.5 +13.5 2
19 24.06 ЮЗ 2-4
{4}
н/о н/о +9.9 +4.7 70 +9 +9 1026.6 1020.9
20 24.06 ЮЗ 2-3
{4}
н/о н/о +9.3 +5.3 76 +8 +8 1026.7 1021.0
21 24.06 ЮЗ 2-3
{4}
н/о н/о +9.3 +5.3 76 +8 +8 1027.0 1021.3
22 24.06 Ю 1-2
{4}
н/о н/о +8.7 +5.1 78 +8 +8 1026.9 1021.2
23 24.06 З 2-3
{3}
н/о н/о +8.6 +5.2 79 +7 +7 1026.7 1021.0
00 25.06 Ю 1-2
{4}
н/о н/о +8.3 +5.1 80 +8 +8 1026.3 1020.6
01 25.06 Ю 1-4
{4}
н/о н/о +8.5 +5.1 79 +8 +8 1025.8 1020.1
02 25.06 ЮЗ 1-3
{4}
н/о н/о +8.7 +5.5 80 +8 +8 1025.5 1019.8
03 25.06 Ю 1-3
{4}
н/о н/о +9.3 +4.9 74 +9 +9 1025.3 1019.6
04 25.06 Ю 1-2
{4}
н/о н/о +9.8 +5.6 75 +9 +9 1025.0 1019.3
05 25.06 Ю 2-4
{5}
н/о н/о +9.7 +6.1 78 +8 +8 1024.9 1019.2
06 25.06 Ю 1-4
{5}
н/о н/о +10.5 +7.4 81 +10 +10 1024.9 1019.2 +8.2 +10.5 0.3
07 25.06 ЮЗ 3-8
{8}
н/о н/о +12.0 +5.2 63 +11 +11 1024.7 1019.1
08 25.06 З 2-6
{8}
н/о н/о +12.0 +4.5 60 +11 +11 1024.7 1019.1
09 25.06 ЮЗ 2-5
{6}
н/о н/о +12.2 +4.9 61 +11 +11 1024.7 1019.1
10 25.06 ЮЗ 2-4
{5}
н/о н/о +11.9 +5.6 65 +11 +11 1024.9 1019.2
11 25.06 СЗ 2-3
{5}
н/о н/о +11.7 +6.4 70 +11 +11 1024.7 1019.1
12 25.06 ЮЗ 1-3
{8}
н/о н/о +12.5 +5.7 63 +13 +13 1024.6 1019.0

 

Местоположение метеостанции Харстад (Норвегия): широта 68.80 долгота 16.53 высота над уровнем моря 45 м.

В архиве по умолчанию представлена погода в Харстаде за последнюю неделю. Архивные данные за месяц целиком и за предыдущие месяцы, начиная с января 2011 года, Вы можете получить, выбрав интересующий диапазон дат из раскрывающегося списка и нажав кнопку "Ввод!".


*Определитесь, кто Вы:
робот инопланетянин человек

Внимание! Время в таблицах - всемирное. Для получения местного времени необходимо прибавить поправку, которая равна 1 ч.

Смотрите также архив погоды в соседних городах и на ближайших метеорологических станциях:

Погода в Аэропорту Харстад/Нарвик (Норвегия) (35 км)
Погода в Сортланне (Норвегия) (46 км)
Погода в Нарвике (Норвегия) (53 км)
Погода на Маяке Rotvaer (Норвегия) (53 км)
Погода на Аннёйа (Норвегия) (58 км)
Погода в Страумснесе (Норвегия) (62 км)
Погода в Стокмаркнес аэропорту (Норвегия) (65 км)
Погода в Каттерьяк аэропорту (Швеция) (79 км)
Погода в Каттерьяке (Швеция) (79 км)
Погода в Лосистуа (Норвегия) (85 км)

Пояснения к столбцам:

Ветер - указаны скорость ветра в м/с - средняя за 10 мин, порывы в срок и между сроками (в фигурных скобках) и направление, откуда дует ветер: С - северный, СВ - северо-восточный, В - восточный, ЮВ - юго-восточный, Ю - южный, ЮЗ - юго-западный, З - западный, СЗ - северо-западный.
Видимость - горизонтальная дальность видимости в метрах или километрах. При видимости от 1 до 10 км при отсутствии осадков обычно наблюдается дымка, при ухудшении видимости до 1 км и менее - туман. В сухую погоду видимость может ухудшаться дымом, пылью или мглою.
Явления - указаны атмосферные явления, наблюдавшиеся в срок или в последний час перед сроком; фигурными скобками обозначены явления, наблюдавшиеся между сроками (за 1-3 часа до срока); квадратными скобками обозначены град или гололедные отложения с указанием их диаметра в мм.
Облачность - указаны через наклонную черту общая и нижняя облачность в баллах и высота нижней границы облаков в метрах; квадратными скобками обозначены формы облаков: Ci - перистые, Cs - перисто-слоистые, Cc - перисто-кучевые, Ac - высококучевые, As - высокослоистые, Sc - слоисто-кучевые, Ns - слоисто-дождевые, Cu - кучевые, Cb - кучево-дождевые. Подробнее классификацию облаков см. в Атласе облаков (PDF).
T - Температура воздуха - температура, измеренная на высоте 2 м над землей.
Td - Температура точки росы - температура, при понижении до которой содержащийся в воздухе водяной пар достигнет насыщения.
f - Относительная влажность воздуха - влажноcть воздуха, измеренная на высоте 2 м над землей.
Te - Эффективная температура - температура, которую ощущает одетый по сезону человек в тени. Характеристика душности погоды. При расчете учитывается влияние влажности воздуха и скорости ветра на теплоощущения человека.
Tes - Эффективная температура на солнце - температура, которую ощущает человек, с поправкой на солнечный нагрев. Характеристика знойности погоды. Зависит от высоты солнца над горизонтом, облачности и скорости ветра. Ночью, в пасмурную погоду, а также при ветре 12 м/с и более поправка равна нулю.
P - Атмосферное давление - приведенное к уровню моря атмосферное давление.
Po - Атмосферное давление - измеренное на уровне метеостанции атмосферное давление.
Tmin - Минимальная температура - минимум температуры воздуха на высоте 2 м над землей.
Tmax - Максимальная температура - максимум температуры воздуха на высоте 2 м над землей.
R - Количество осадков - Количество выпавших осадков за период времени, мм. При наведении курсора мыши на число - период времени, за который выпало указанное количество осадков.
R24 - Количество осадков - Количество выпавших осадков за 24 часа, мм.
S - Снежный покров - Высота снежного покрова, см. При наведении курсора мыши на число - состояние снежного покрова и степень покрытия местности в баллах.